Find Local Weather

World > North America > United States > Connecticut

Darien High School, Connecticut Regional Weather

Lat: 41.08N, Lon: 73.49W
Wx Zone: CTZ009
Feedback
Expires:201810191800;;427074
ASUS41 KOKX 191706
RWROKX

Regional Weather Roundup
National Weather Service New York NY
100 PM EDT FRI OCT 19 2018

Note: "FAIR" indicates few or no clouds below 12,000 feet with no
significant weather and/or obstructions to visibility.


CTZ002-004>006-009-010-012-RIZ004-006-007-MAZ004-011-015-191800-
Southern New England

 In CT
  
CITY           SKY/WX    TMP DP  RH WIND       PRES   REMARKS
Bradley Intl   PTSUNNY   58  32  37 SW13      30.13F                  
Hartford       FAIR      56  33  42 SW9       30.14F                  
Danbury        FAIR      54  36  50 SW10      30.17F                  
Wtrbury/Oxford FAIR      53  35  50 SW8       30.15F                  
Norwalk Harbor   N/A     52 N/A N/A SW16        N/A                   
Bridgeport     FAIR      57  34  41 SW10      30.18F                  
Meriden        FAIR      57  34  41 S8        30.15F                  
New Haven      FAIR      56  38  50 SW13G20   30.17F                  
Chester        FAIR      55  34  44 W9        30.15F                  
Groton         FAIR      56  44  64 SW17G25   30.16F                  
Willimantic    FAIR      57  31  37 S8        30.14F                  

 In RI
  
CITY           SKY/WX    TMP DP  RH WIND       PRES   REMARKS
Providence     FAIR      58  35  42 SW12      30.15F                  
Block Island   NOT AVBL                                               
Westerly       FAIR      56  44  64 SW15G23   30.17F                  
 
In MA
  
CITY           SKY/WX    TMP DP  RH WIND       PRES   REMARKS
Boston         FAIR      57  34  41 SW14G24   30.10F                  
Worcester      FAIR      53  34  48 SW17      30.09F                  
Westfield      FAIR      56  33  42 S10       30.11F                  
Provincetown   FAIR      56  37  49 SW18      30.13F                  
Nantucket      FAIR      57  39  51 SW23G32   30.17F                  
$$


SKY/WX - Weather  TMP - Temperature  DP - Dew Point  RH - Relative Humidity
WIND - Wind Direction/Speed PRES - Barometric Pressure